Theta_e
319 319 319 318 319 319 320 320 320 321 321 321 322 322 322 322 322 322 323 322 323 324 323 324 325 325 325 326 326 326 324 309 313 310 307 308 319 335 333 336 333 335 331 308 307 306 303 302 305 303 304 301 302 301 304 305 302 294 291 285 287 285 289 291 293 294 295 294 294 293 295 296 293 295 297 299 298 294 295 297 298 297 298 300 300 304 307 309
319 318 318 318 318 319 319 320 320 320 320 320 321 321 322 322 321 321 322 322 322 323 323 324 324 325 325 325 326 326 317 311 307 307 308 320 336 340 337 337 335 335 323 307 304 301 301 302 301 302 302 300 304 302 305 303 302 294 290 288 285 285 290 294 295 295 294 293 295 295 293 295 296 296 297 297 293 293 295 297 296 297 299 298 299 299 307 310
319 318 318 318 318 318 319 320 320 320 320 320 320 321 321 320 321 321 321 321 322 322 323 323 324 324 325 325 325 324 315 309 307 305 312 335 338 338 339 336 334 331 310 308 303 302 302 302 301 301 299 298 297 300 301 301 303 296 292 289 287 291 293 294 296 296 295 296 296 295 296 295 297 297 298 297 293 292 294 296 297 297 298 298 298 297 303 308
318 318 317 318 318 317 319 319 320 320 320 320 321 321 321 321 321 321 321 321 322 322 322 323 323 324 324 324 326 318 313 302 301 305 312 334 337 340 338 335 334 327 311 307 304 304 302 301 300 301 299 298 294 302 300 300 298 296 293 289 291 292 294 296 296 296 295 296 297 296 294 295 296 296 298 296 295 295 295 296 297 298 300 300 299 299 303 306
318 318 318 317 317 318 320 319 319 320 320 320 321 321 320 321 321 321 321 321 321 322 322 323 323 324 323 324 323 314 305 293 302 308 316 335 335 339 337 337 334 316 310 310 306 304 302 300 299 299 298 294 295 296 297 299 299 297 295 294 294 294 295 298 297 296 297 296 296 294 294 296 297 298 298 297 294 295 296 298 297 299 300 300 300 300 299 303
318 318 318 317 317 319 320 319 319 320 320 320 321 321 321 321 321 321 321 322 322 322 322 323 323 322 323 324 313 310 300 289 303 306 334 335 336 339 337 334 328 310 311 306 306 302 304 300 299 298 294 294 293 292 291 299 301 295 293 295 295 296 296 297 296 295 294 295 295 294 296 297 296 296 294 296 296 299 301 299 300 300 301 301 298 298 299 299
317 317 317 317 317 318 319 319 319 319 320 320 321 321 321 321 321 322 321 321 322 322 322 322 322 322 323 322 310 304 299 298 304 317 330 337 339 337 335 331 322 310 308 307 303 304 299 298 297 295 293 294 292 292 294 297 299 297 294 293 296 297 297 297 297 295 292 294 295 296 294 295 294 295 295 295 300 300 301 299 299 301 301 300 298 297 297 297
317 317 318 317 318 318 318 319 319 319 320 320 321 321 321 322 322 321 322 322 321 322 322 321 321 321 322 310 311 299 300 300 303 314 323 335 329 326 320 311 311 308 307 304 301 301 300 297 297 297 294 293 292 294 295 296 295 296 294 293 295 295 295 295 292 293 294 294 294 294 294 296 295 295 295 298 300 301 302 300 298 299 298 298 297 296 296 296
319 319 319 317 318 318 318 318 319 319 319 320 321 321 322 322 322 322 322 321 321 321 321 321 321 321 321 312 300 300 300 305 315 318 322 320 318 313 309 309 309 308 306 303 303 302 302 298 298 297 294 295 296 297 294 294 289 294 294 295 293 293 293 294 294 294 294 296 296 294 295 295 294 295 295 299 300 302 299 297 296 295 294 295 295 296 297 298
320 319 318 317 318 318 318 318 318 319 320 321 321 322 322 322 322 322 322 321 321 320 320 321 321 320 309 305 300 298 305 311 321 325 320 318 316 312 310 309 308 306 305 304 302 302 301 299 301 301 297 298 297 296 295 293 291 294 293 293 293 294 293 294 294 296 295 294 295 294 295 294 294 295 291 293 297 297 296 296 296 294 294 294 296 298 298 298
319 318 317 317 319 318 318 318 318 319 320 321 322 322 323 322 322 322 321 321 320 320 320 320 321 316 306 308 300 297 310 317 318 322 318 313 312 310 311 311 308 306 305 303 304 304 305 301 303 303 302 296 297 293 294 295 295 294 294 292 293 292 294 294 293 294 294 294 292 293 292 293 291 294 293 298 300 297 296 296 295 294 294 295 297 297 296 297
319 317 318 318 318 318 318 318 318 319 321 322 322 323 323 323 323 321 321 320 320 320 320 320 320 313 310 304 299 301 310 313 319 319 315 313 313 312 311 309 308 307 306 304 305 306 307 305 303 302 295 300 293 295 294 295 296 294 294 291 292 290 293 295 293 294 293 293 292 293 292 291 292 290 296 298 297 296 294 295 294 294 294 295 296 295 295 295
318 318 318 318 318 318 318 319 320 320 321 322 323 323 323 323 322 321 320 320 320 320 320 320 319 311 305 296 299 309 310 309 314 313 312 311 310 311 311 309 310 309 307 305 304 306 306 303 301 299 300 296 294 294 296 297 295 295 292 291 290 289 290 295 294 293 293 293 291 293 286 286 290 294 296 297 294 294 294 295 294 294 294 295 295 294 294 294
319 319 318 318 318 318 319 319 320 321 322 323 323 323 323 322 321 321 320 319 321 319 320 321 312 308 300 294 304 309 309 311 315 314 312 312 310 310 310 310 309 308 308 305 305 303 306 304 303 301 302 298 296 301 296 292 292 291 290 290 287 286 285 292 294 293 293 293 291 294 286 286 290 294 296 295 295 294 294 294 293 294 294 294 294 293 293 293
319 319 319 317 318 318 319 319 321 322 323 323 323 322 322 321 322 320 320 319 321 320 320 318 307 301 295 297 308 310 324 313 312 311 311 310 307 307 308 306 305 305 306 306 306 306 304 304 302 299 297 298 297 295 287 288 287 288 288 283 282 285 285 291 296 294 292 293 292 292 285 288 291 293 295 295 294 293 293 292 292 294 294 294 293 292 292 292
320 320 320 319 318 319 319 320 321 322 322 322 322 321 321 321 321 320 321 319 318 319 312 308 308 302 295 293 305 318 307 306 307 308 307 311 306 305 306 305 306 303 303 303 304 304 302 300 297 294 297 296 291 284 284 285 285 285 287 282 283 283 284 289 294 292 293 291 292 292 287 285 289 290 292 293 292 292 291 291 292 293 293 293 292 292 291 291
318 319 319 319 320 320 320 320 320 321 321 322 322 321 322 322 320 319 319 320 316 314 310 308 308 304 295 303 308 303 302 304 308 308 307 308 309 306 304 303 303 302 302 302 301 301 298 299 297 295 293 290 288 286 283 281 282 282 284 284 284 285 285 285 291 292 290 290 289 290 288 287 291 291 293 295 294 293 292 291 292 293 292 292 291 291 290 290
319 319 320 319 320 320 320 321 321 321 321 322 321 321 319 320 321 320 316 316 313 310 308 312 305 299 297 303 299 299 305 305 307 307 305 306 307 303 302 301 300 299 299 297 298 296 298 295 292 289 289 289 290 286 283 281 284 282 284 284 286 286 285 288 288 290 293 291 291 288 287 288 290 291 292 294 294 293 291 292 292 291 291 291 291 290 290 290
320 320 320 320 321 320 321 320 321 322 322 322 321 321 320 320 311 309 311 312 306 299 296 297 297 292 292 298 302 306 308 308 307 306 305 307 307 305 303 301 299 298 295 293 293 296 293 291 290 288 287 286 288 289 288 290 288 288 288 287 285 285 286 287 290 290 293 290 290 288 290 291 291 291 292 293 293 293 291 292 292 291 291 290 290 289 289 289
320 321 321 321 321 321 321 321 322 322 322 319 317 314 309 304 302 302 303 305 302 300 301 300 301 299 300 300 303 307 308 305 302 303 305 305 306 303 301 300 298 296 293 291 293 294 293 287 286 287 288 290 291 291 292 292 290 289 288 287 286 286 287 288 289 293 292 290 287 290 288 286 288 290 292 292 291 291 292 291 291 290 290 289 289 289 289 288
321 321 321 321 320 321 321 322 322 322 322 319 315 308 302 299 298 297 299 301 303 303 301 301 301 301 302 303 301 302 300 300 303 304 305 309 304 301 298 297 293 293 291 291 292 294 291 287 286 290 292 292 293 291 290 289 289 288 287 285 285 285 286 288 290 290 290 290 285 285 288 288 289 291 292 291 291 291 290 290 289 289 289 289 288 288 288 288
321 321 321 321 321 322 322 322 322 322 322 318 313 308 302 303 305 306 302 299 303 305 304 305 304 302 304 302 303 302 303 299 300 302 307 307 302 297 296 294 290 291 291 291 290 289 287 287 291 292 294 292 292 291 289 289 288 287 286 285 284 286 286 289 290 289 289 289 286 284 288 289 291 290 291 291 290 290 290 290 289 289 288 288 288 287 287 287
321 322 322 322 321 322 322 322 322 322 316 312 307 304 302 305 305 305 304 297 298 302 303 303 303 303 304 303 303 304 300 299 298 300 303 305 298 297 295 293 291 290 291 291 290 285 285 286 291 294 293 291 291 291 289 289 289 287 286 284 284 286 286 283 286 288 290 290 288 287 287 288 290 290 290 290 290 289 290 290 289 289 287 287 287 287 287 286
321 321 322 322 322 322 322 321 322 317 312 310 307 305 307 305 304 305 301 296 296 301 303 303 305 303 303 304 305 303 301 300 300 299 305 302 298 296 295 294 292 290 290 291 291 289 290 292 294 293 291 291 290 290 289 287 286 284 287 286 285 285 285 286 287 288 288 288 288 286 286 285 288 289 287 289 290 289 289 289 288 289 288 288 287 287 287 286
321 321 321 322 321 322 321 321 313 312 308 307 305 306 305 303 304 304 301 295 293 296 304 303 304 302 303 306 304 302 299 299 300 301 304 302 297 296 294 296 292 290 291 291 290 289 289 294 294 291 289 289 289 289 289 288 285 284 285 289 289 287 287 286 286 287 281 283 284 287 279 277 283 286 286 287 287 287 287 286 286 287 287 286 286 286 286 286
321 321 321 321 321 322 322 312 307 308 310 308 307 306 304 303 302 304 297 288 286 292 299 296 305 301 306 300 300 299 301 297 299 300 305 303 303 298 296 293 294 290 291 289 290 288 291 293 293 293 290 288 288 288 287 290 284 285 287 288 289 288 287 285 285 284 280 279 285 285 281 277 280 285 286 286 285 285 286 285 286 286 286 285 285 285 285 285
322 321 321 321 321 322 314 308 309 310 307 307 308 306 305 305 305 305 298 287 284 293 296 300 300 298 302 298 301 301 292 291 300 299 300 302 300 303 293 291 293 294 293 291 289 288 291 291 291 291 290 288 286 287 288 290 287 284 285 286 287 286 286 285 284 285 281 281 283 285 283 280 277 284 287 286 285 284 284 284 284 285 285 285 285 285 285 285
321 321 321 321 322 320 316 312 312 309 308 311 308 306 305 305 305 304 295 284 285 299 294 296 299 303 300 297 297 295 293 297 293 296 299 300 300 297 295 290 292 292 292 291 285 289 291 288 288 289 288 287 288 288 288 290 288 285 287 285 285 286 286 284 285 282 281 282 278 279 283 280 277 281 285 286 284 282 283 283 284 284 285 285 285 285 285 285
320 321 320 321 321 321 319 316 313 311 310 308 306 306 307 305 304 296 289 284 296 294 304 294 305 299 296 298 294 292 294 293 291 294 297 299 300 296 292 292 291 291 291 292 288 286 291 292 289 289 287 287 287 285 288 291 288 289 286 286 285 284 283 283 280 282 279 279 275 280 282 278 278 280 283 284 284 283 283 284 284 284 284 284 284 284 285 284
320 320 320 320 320 318 317 317 314 313 310 308 306 306 307 305 301 294 287 281 299 292 297 297 295 291 292 292 291 292 290 291 293 295 295 294 295 297 295 295 290 290 290 285 289 288 291 292 293 291 289 288 286 286 286 289 289 287 286 284 283 281 281 279 278 277 278 274 278 282 283 283 276 280 282 283 283 284 284 283 284 284 284 284 284 284 284 284
320 320 320 320 316 317 317 312 317 311 310 310 312 312 309 305 295 288 284 291 298 295 294 294 291 293 291 289 288 290 289 290 292 292 291 294 293 292 292 291 290 284 282 281 284 284 288 289 290 288 292 289 288 287 286 285 286 286 284 282 283 281 278 276 273 276 273 271 276 279 282 283 275 277 282 283 284 285 286 284 283 283 283 284 284 284 284 284
320 320 320 318 319 320 314 312 316 311 311 313 314 310 305 292 295 286 286 301 293 294 290 288 291 290 289 289 287 288 286 290 291 290 287 287 286 288 287 284 286 280 280 281 284 283 285 287 286 289 291 292 287 286 286 282 283 284 282 281 276 274 272 272 272 272 272 273 278 279 281 280 281 282 282 283 283 284 286 286 284 283 283 283 283 284 283 283
319 318 318 319 317 317 317 313 313 311 313 314 312 308 297 289 284 291 290 293 290 294 292 293 290 290 289 289 289 289 289 287 289 289 287 288 287 288 287 287 285 285 281 280 284 280 282 281 286 288 290 290 290 286 283 284 283 283 283 279 274 272 271 266 267 267 269 274 277 281 282 280 280 281 282 282 283 283 285 285 285 284 283 283 283 283 283 282
317 316 315 313 316 315 313 311 312 313 313 313 309 301 293 286 286 297 295 291 291 294 294 292 291 292 291 289 290 291 288 291 290 289 289 286 286 284 287 289 288 288 284 281 282 281 278 280 285 288 286 289 291 290 287 281 282 284 282 285 281 272 268 268 266 272 273 275 275 278 277 273 277 280 281 282 283 283 284 284 284 283 283 283 281 281 281 281
314 314 313 311 312 312 311 311 311 314 314 311 303 297 287 287 288 288 288 291 291 294 292 295 291 290 291 291 293 292 292 289 289 289 287 286 284 282 284 287 289 289 284 285 283 280 283 281 285 289 289 290 289 289 287 284 284 283 281 283 279 279 278 276 272 270 269 273 275 275 276 276 278 282 283 282 282 282 283 282 283 282 282 281 281 282 281 281
312 309 313 310 311 311 310 311 312 314 313 306 298 290 289 291 288 290 290 298 297 293 293 293 290 288 287 288 291 291 296 291 290 289 287 286 284 284 285 287 289 291 287 284 283 281 282 281 284 289 288 288 288 289 290 287 281 282 284 280 281 282 284 276 275 278 275 273 275 271 280 280 282 282 282 282 281 281 281 281 281 281 281 280 281 281 280 280
307 308 306 308 310 311 310 311 312 312 310 304 296 290 294 292 293 293 299 298 297 296 293 289 290 288 287 286 288 290 292 292 289 287 285 286 286 287 286 288 290 290 293 291 286 284 282 279 283 286 287 288 286 287 287 286 285 285 280 281 284 285 283 279 273 270 274 272 273 276 276 277 279 275 280 280 279 280 280 280 281 280 280 280 281 280 281 281
305 305 306 305 309 311 311 311 313 310 306 300 294 295 295 294 298 298 298 297 297 296 292 291 290 292 286 286 287 288 291 290 288 288 283 286 285 289 288 288 291 292 293 291 289 286 286 281 282 286 286 287 286 289 288 288 288 285 282 285 285 277 277 278 272 270 269 268 269 271 277 277 278 279 277 279 279 280 280 280 280 280 280 280 280 281 281 281
304 304 301 305 311 312 310 312 312 307 301 295 294 293 297 296 299 297 299 298 298 295 292 293 292 293 291 286 287 289 290 287 287 286 285 287 286 290 291 291 290 289 290 290 288 285 285 279 280 285 286 287 285 285 281 283 287 285 286 285 283 281 276 273 277 272 272 267 270 268 276 275 279 279 280 282 282 281 281 280 280 281 281 281 281 282 282 282
302 299 298 308 312 312 311 312 307 303 299 292 294 294 297 295 298 299 298 300 296 294 293 292 294 291 292 291 290 288 289 289 287 286 288 289 290 294 291 293 289 289 289 290 289 289 286 282 274 282 283 286 282 284 283 284 281 283 282 280 282 280 281 279 279 276 275 268 270 272 272 275 277 281 282 283 284 283 282 281 281 281 281 281 282 282 282 281
303 299 299 309 311 312 312 307 300 296 295 294 296 294 295 296 297 298 299 301 298 300 296 293 293 292 290 289 291 290 288 288 288 287 288 288 287 284 293 292 292 290 292 290 289 286 282 284 280 277 282 282 280 283 284 284 286 282 283 281 283 279 278 276 276 280 274 278 272 275 275 279 283 287 284 284 284 283 283 283 282 282 282 282 282 282 281 281
299 293 297 310 312 312 306 296 297 298 294 294 294 296 295 302 296 297 297 299 298 296 300 296 295 292 290 291 289 284 288 288 289 288 287 287 292 291 293 295 294 294 291 287 287 291 288 285 280 278 281 283 284 288 286 287 285 284 286 284 284 282 281 275 275 276 276 278 276 276 275 277 285 284 283 283 284 284 283 283 283 283 283 283 283 282 282 282
297 295 303 306 312 310 302 295 297 296 295 295 298 298 299 298 296 297 297 297 296 298 295 294 295 293 294 294 292 288 290 286 288 289 288 287 290 294 295 296 295 294 294 289 292 292 292 284 283 283 282 281 283 283 285 286 288 286 285 282 282 282 283 283 282 279 276 274 276 274 275 281 285 284 283 282 283 283 283 283 283 284 284 283 283 284 284 284
297 297 299 306 310 308 299 290 290 293 295 295 297 296 299 298 296 295 296 297 295 294 293 293 294 298 294 296 294 291 292 285 290 290 288 289 288 294 292 294 296 291 293 292 291 292 286 285 285 279 277 278 280 281 283 285 284 279 281 282 281 281 281 279 277 276 275 277 280 275 273 279 284 283 283 283 283 283 283 283 283 284 284 284 284 283 283 283
297 298 298 301 306 303 293 296 293 293 294 293 294 294 295 296 297 298 297 296 297 294 293 291 295 296 294 295 294 294 293 293 287 290 291 287 290 291 291 291 293 292 292 291 294 290 288 283 283 278 276 274 273 273 272 277 283 282 282 281 283 282 281 280 276 279 276 281 279 276 278 282 283 282 284 284 283 283 283 284 282 282 283 283 282 281 281 281
292 284 294 295 300 299 297 299 296 293 291 292 291 293 295 293 295 297 299 297 299 296 296 293 294 296 292 292 289 290 290 292 291 285 288 286 286 287 289 288 290 290 292 293 290 289 284 282 283 284 282 280 281 276 280 282 280 278 278 279 281 281 279 279 278 277 277 280 277 278 277 277 280 281 282 282 280 282 283 283 283 283 282 281 281 281 281 281
295 286 288 284 295 295 293 296 294 296 290 295 287 293 291 293 294 294 299 292 297 296 294 294 292 291 290 291 290 290 291 290 290 288 286 285 286 286 289 287 289 290 293 291 290 285 282 281 283 281 283 282 280 281 283 285 282 280 278 279 280 278 276 277 278 275 281 277 274 282 281 276 280 282 282 282 282 282 282 282 283 283 283 282 281 280 282 279
287 289 294 295 289 285 287 288 294 293 294 295 290 293 290 291 292 289 294 296 294 297 293 290 291 294 292 291 290 286 288 288 288 287 286 286 287 289 287 288 287 289 288 287 286 286 284 282 283 283 282 283 283 283 283 282 282 280 281 280 281 281 276 274 272 280 279 277 276 280 279 277 279 281 280 281 283 283 283 283 284 284 281 279 279 279 279 278
291 289 290 294 289 291 290 292 294 293 292 294 290 292 289 290 289 292 291 290 292 291 296 288 290 292 291 292 291 288 288 285 285 287 286 286 287 285 283 285 287 284 284 285 286 284 282 276 280 280 279 280 280 279 280 279 278 278 279 280 280 279 277 277 277 279 279 278 280 280 279 279 281 281 281 282 282 282 282 282 279 278 279 280 279 279 278 277
287 287 286 290 290 287 290 292 292 292 289 292 288 290 290 289 289 291 291 292 288 290 293 291 291 290 290 289 290 288 289 290 288 287 286 286 282 283 283 283 282 283 282 285 286 285 285 277 282 277 277 274 275 278 279 278 277 276 277 277 277 275 276 278 278 278 277 277 279 279 278 277 282 282 281 282 279 278 278 279 280 279 278 279 278 278 278 278
289 290 291 287 286 287 287 289 290 290 288 290 288 290 291 291 290 292 291 291 293 289 290 291 294 289 289 289 289 289 290 288 288 289 286 288 287 286 286 283 286 281 281 280 281 280 281 275 278 274 272 268 271 275 276 273 274 272 273 275 275 274 274 276 275 277 276 275 276 275 272 276 281 281 279 279 277 278 279 278 278 278 278 278 278 278 279 279
288 289 290 287 284 290 287 287 289 289 285 290 290 290 290 291 292 292 289 290 286 289 290 293 292 290 286 287 287 289 287 284 286 284 286 285 286 284 283 283 286 284 278 281 280 278 279 276 273 269 268 266 271 272 273 270 269 270 273 276 276 276 277 277 277 277 278 278 271 271 274 279 280 281 279 278 278 278 277 277 277 277 278 279 279 279 279 278
Wind_Speed
9 9 8 7 7 8 8 8 8 8 9 9 9 9 8 8 9 10 10 10 10 10 11 12 12 12 12 12 12 11 10 1 1 0 1 7 3 2 8 3 11 9 7 3 3 4 1 2 0 4 2 2 1 1 2 1 1 2 1 4 0 3 1 4 2 1 1 0 3 3 1 1 3 3 3 3 2 1 5 7 5 3 5 5 3 3 2 3
8 8 8 8 7 8 7 7 7 7 8 8 9 9 8 8 9 10 10 10 10 11 11 11 12 12 12 12 11 11 6 1 3 4 9 3 5 3 5 6 10 11 7 3 5 3 5 0 1 2 1 1 1 0 1 1 1 1 1 2 3 4 5 4 2 1 0 3 3 2 3 1 3 1 2 1 3 3 6 9 5 8 9 5 7 5 1 4
7 7 7 7 7 7 7 7 7 7 7 7 7 8 8 8 8 9 10 10 10 11 11 11 12 13 12 12 12 10 4 3 1 2 2 4 3 1 3 7 10 11 4 2 3 6 4 4 3 3 2 0 3 1 2 1 0 1 3 2 5 6 4 5 4 4 4 2 2 4 2 1 4 0 0 1 4 4 8 10 10 7 12 6 2 3 0 4
5 5 6 6 6 6 7 7 7 7 7 7 7 8 8 8 8 9 9 10 11 11 11 12 12 12 12 13 12 8 1 2 1 1 1 4 3 4 1 5 8 7 2 5 4 3 2 3 3 3 1 1 3 1 1 3 1 2 2 3 4 3 1 4 1 3 3 3 1 3 3 6 4 2 1 2 7 6 7 7 9 13 14 11 6 2 1 3
4 4 5 5 5 5 6 6 5 6 6 7 7 7 7 8 8 9 9 10 11 11 12 13 13 13 13 13 13 2 2 3 2 1 2 3 4 3 2 3 4 1 3 1 3 2 3 2 3 2 1 1 1 1 3 1 1 4 6 4 5 1 1 8 6 4 2 2 2 4 5 5 1 3 1 0 7 10 5 7 7 11 11 9 10 7 1 3
4 4 4 4 4 5 6 5 5 6 6 6 6 7 8 8 8 9 10 10 11 12 12 12 13 14 14 14 4 1 2 1 1 1 4 3 3 4 4 5 5 2 0 3 0 1 1 3 3 0 0 1 2 3 2 1 1 3 3 3 4 5 3 2 2 4 4 4 4 3 2 2 2 5 3 4 9 8 8 5 7 9 10 8 4 5 7 5
5 5 4 4 5 5 5 5 5 6 6 7 7 8 9 9 9 10 10 11 11 12 12 12 12 13 15 10 0 2 2 5 2 3 4 2 3 5 6 5 6 3 2 1 1 1 1 2 2 1 3 0 3 2 3 0 1 3 5 1 5 2 6 5 5 6 5 3 5 2 3 4 3 9 0 4 12 12 12 4 7 11 11 6 6 5 5 7
6 5 5 4 5 5 5 5 6 6 7 7 8 9 9 10 10 10 11 11 11 12 11 11 10 11 11 3 0 1 2 5 5 2 0 5 6 6 7 4 3 4 3 2 3 2 2 3 3 2 1 3 2 3 1 1 1 3 3 2 4 1 4 4 5 6 7 7 5 2 4 9 4 4 4 12 15 14 13 2 4 7 7 7 6 8 6 8
4 4 4 5 5 5 5 6 7 7 8 8 9 10 10 10 10 11 11 11 11 11 11 10 10 8 5 0 3 1 6 3 2 1 3 6 5 5 1 1 1 4 3 3 1 2 2 3 0 4 3 1 1 1 2 2 4 2 2 0 3 4 5 6 7 8 6 6 1 5 10 9 5 3 4 15 16 14 4 5 5 4 5 6 8 9 9 10
4 4 4 5 5 6 6 6 7 7 8 9 9 10 10 10 11 11 11 10 10 9 9 8 6 6 3 2 3 1 4 2 1 3 4 6 5 5 8 3 4 4 3 1 3 2 2 2 1 3 3 0 1 0 0 3 2 1 2 2 4 7 5 5 4 9 3 5 3 5 11 8 1 3 6 5 11 4 5 6 6 6 5 7 9 9 9 12
2 5 5 5 6 5 6 7 7 7 8 9 10 10 11 11 12 12 11 10 8 8 6 7 3 3 0 1 4 6 2 2 0 3 5 5 6 5 1 2 3 4 4 2 3 2 1 3 3 2 0 1 0 3 1 1 1 1 2 4 5 6 6 8 5 11 3 4 3 7 7 3 2 2 8 9 11 5 7 7 5 6 6 9 9 10 8 10
2 5 5 5 6 6 6 6 7 7 9 9 10 11 12 12 13 12 10 9 7 5 5 3 2 1 0 2 5 6 1 2 1 3 4 4 3 4 4 4 3 5 5 3 0 1 3 3 4 1 2 0 0 1 1 1 0 1 2 5 8 5 7 9 4 2 3 3 3 7 1 5 0 4 11 12 5 7 7 8 6 6 8 9 8 9 10 9
4 6 6 5 6 6 6 7 8 9 9 10 11 12 14 14 14 12 9 6 5 5 4 4 3 2 1 0 8 4 2 2 3 6 3 3 3 2 0 1 4 3 4 6 3 2 3 4 3 4 2 3 2 0 1 1 2 1 1 1 7 4 7 10 1 1 2 3 5 5 2 6 7 11 10 8 4 5 7 7 8 7 8 8 8 9 9 10
3 5 6 6 6 6 8 9 9 9 10 11 13 14 14 14 13 10 6 6 6 3 0 3 3 1 1 4 3 2 3 1 2 5 1 0 4 1 2 3 3 3 2 5 2 1 1 0 5 3 1 1 1 1 2 4 2 2 1 1 2 4 5 6 1 2 3 1 5 2 4 7 9 11 9 7 1 1 6 5 7 8 8 7 7 8 9 10
7 4 4 6 7 7 7 8 8 10 11 13 14 14 14 13 10 6 5 5 1 2 3 4 1 1 1 6 2 4 3 1 3 1 1 2 3 1 0 2 5 4 1 4 1 0 2 2 3 1 1 1 2 1 2 2 3 1 2 4 3 3 7 11 9 2 1 1 3 4 1 8 7 10 12 9 1 1 5 6 6 7 7 7 7 7 8 8
5 5 7 8 9 10 11 10 9 11 12 13 13 14 13 10 7 3 3 2 1 2 1 0 1 1 1 4 0 2 1 2 2 1 1 3 2 1 1 4 1 4 3 2 3 2 4 3 2 3 0 1 3 4 3 4 3 4 2 3 3 1 5 7 4 1 5 2 1 5 6 2 5 7 9 7 3 3 5 5 7 8 7 8 7 7 6 7
6 10 10 9 10 10 9 9 8 9 12 11 14 13 11 6 3 2 2 3 3 2 1 0 0 0 1 1 1 0 3 1 2 1 1 1 2 5 4 3 1 1 4 4 6 4 4 2 2 2 3 2 3 5 2 3 5 4 1 5 4 3 2 3 8 4 3 3 2 1 1 5 7 9 11 14 6 7 5 5 7 7 6 6 6 7 8 9
11 11 12 11 10 9 9 9 9 11 11 11 12 11 5 3 3 2 2 2 0 1 1 1 1 1 7 2 2 2 1 2 1 2 2 1 5 4 3 2 1 4 2 2 4 2 2 1 3 4 1 1 2 3 3 6 5 4 1 1 5 2 4 7 1 2 4 3 2 2 2 7 11 11 11 11 8 6 6 7 7 7 7 6 7 7 8 8
12 10 8 11 11 10 9 9 10 10 9 13 10 5 5 5 2 2 1 0 1 1 1 2 2 4 2 3 1 3 1 2 1 2 1 2 1 3 4 3 4 4 1 2 1 1 2 3 5 2 3 2 6 9 10 10 4 6 6 5 2 3 5 4 4 4 1 4 5 5 8 9 9 10 9 5 3 4 5 7 7 7 7 7 8 7 7 7
11 10 11 12 10 10 8 8 10 8 10 8 4 2 0 1 1 1 1 1 3 5 1 4 6 2 3 2 2 0 0 1 3 2 0 1 3 2 3 2 3 5 3 3 0 1 1 4 5 7 8 11 10 12 13 9 3 2 0 1 5 4 6 4 4 8 1 2 5 7 3 3 7 8 8 6 4 8 7 7 7 6 6 7 7 7 7 8
12 12 12 12 9 8 8 10 9 7 5 3 2 1 1 2 1 3 2 7 6 5 4 4 10 7 4 2 2 5 4 1 2 0 1 0 2 6 1 2 2 1 1 2 4 1 4 3 8 11 11 12 12 6 3 3 1 3 4 3 7 4 8 5 4 3 3 3 3 0 2 6 7 7 6 6 8 7 5 7 7 7 7 6 6 6 7 5
13 12 13 11 9 9 9 8 7 6 4 2 1 0 0 1 0 1 1 4 3 7 8 10 1 5 1 4 4 4 3 2 0 0 1 1 1 5 2 3 3 7 1 3 3 2 2 7 12 15 11 2 1 2 4 6 4 2 4 3 2 8 4 8 6 2 1 2 7 0 1 7 10 3 5 6 6 4 5 5 5 6 6 5 6 6 5 6
12 13 11 9 9 9 9 7 5 4 1 1 1 1 1 1 0 0 1 1 6 2 3 4 4 8 5 3 1 2 4 6 6 4 4 2 2 3 5 3 4 3 1 5 8 3 3 6 16 12 1 3 4 2 3 1 1 3 2 1 7 4 1 5 4 2 2 1 4 2 5 7 4 6 8 6 4 6 7 10 9 6 8 7 6 5 5 6
13 13 11 10 9 9 8 6 6 2 2 4 1 2 0 1 2 1 2 2 4 6 5 4 4 2 6 4 3 7 6 3 3 4 2 5 8 3 3 6 6 4 8 8 9 11 11 10 3 2 4 5 6 5 2 2 4 3 5 5 4 3 4 7 5 2 3 2 1 2 4 6 7 5 3 4 4 8 6 8 8 6 6 5 4 7 6 6
13 12 12 11 10 7 5 5 2 5 2 2 1 1 1 1 2 3 1 3 1 5 2 0 2 0 2 2 1 5 1 1 1 0 3 5 5 3 4 2 3 7 6 8 4 5 8 8 2 3 2 3 4 7 6 4 3 3 6 10 8 5 5 3 2 2 6 3 1 1 5 4 4 3 5 4 3 6 3 7 6 6 6 5 6 6 4 5
13 12 11 11 9 7 6 1 3 2 3 2 2 2 2 2 2 2 2 2 4 4 2 4 1 1 1 0 2 3 4 3 0 1 2 3 1 2 1 2 3 7 6 4 7 4 8 3 4 5 5 4 5 5 4 6 5 0 6 7 7 4 3 2 2 2 1 2 1 2 0 7 5 2 5 4 4 5 3 4 4 5 5 4 5 4 4 4
13 12 11 11 10 9 3 4 2 3 1 2 2 3 2 2 1 2 1 2 2 4 5 1 1 1 1 0 1 2 2 4 0 2 2 2 2 1 3 5 0 1 3 3 3 6 2 5 4 2 3 4 3 6 4 9 6 4 2 3 5 5 4 4 3 2 3 1 5 1 3 6 3 7 3 7 7 4 4 3 3 4 4 4 4 4 4 4
13 13 12 11 11 13 2 1 2 2 3 1 4 3 3 3 2 1 1 4 3 1 2 1 0 1 1 0 5 1 1 2 2 2 0 1 1 2 1 2 5 6 2 4 7 3 3 2 2 4 3 4 7 6 3 7 6 3 2 5 3 3 2 3 1 1 0 1 7 3 0 1 4 5 0 8 6 3 3 4 3 4 3 3 3 3 3 4
14 13 13 11 12 17 2 1 2 4 2 4 4 4 3 2 1 2 3 3 1 2 2 2 3 1 1 0 3 1 0 1 1 0 2 2 3 2 1 4 3 1 1 4 7 2 1 1 3 7 5 7 4 1 3 9 5 2 4 4 5 5 4 2 3 2 1 1 7 5 4 3 7 4 1 3 2 6 6 5 5 3 4 3 3 3 3 3
15 14 13 13 10 9 3 1 3 1 6 4 5 4 3 1 1 2 2 7 1 2 1 1 2 3 2 4 0 1 1 2 2 0 2 2 2 2 1 1 2 0 1 4 1 6 1 4 5 4 5 4 4 1 1 1 1 4 4 2 4 7 3 2 5 2 2 4 7 9 8 7 5 4 7 8 5 1 8 3 4 4 3 3 2 3 3 3
16 15 14 14 7 5 5 5 7 4 5 6 6 4 2 2 2 3 11 2 2 1 2 1 2 3 6 6 4 0 3 0 1 1 1 2 1 3 1 1 4 4 2 3 3 5 3 1 0 2 3 3 4 3 3 1 1 3 1 2 3 2 7 3 3 4 2 7 6 4 7 6 6 4 2 3 5 4 15 14 12 10 7 5 4 3 2 2
16 16 15 11 7 6 9 6 8 7 7 8 6 4 4 4 1 9 3 1 1 3 4 2 0 3 5 1 4 4 4 1 0 2 3 3 4 5 5 7 5 3 3 4 6 3 3 6 2 5 3 7 2 4 2 5 3 5 5 6 2 4 5 2 2 1 5 6 2 2 5 2 9 5 2 6 6 6 3 11 15 13 10 7 4 4 2 2
17 16 17 13 7 6 5 1 9 9 7 6 4 4 4 4 10 6 0 3 2 3 3 4 5 4 5 3 3 2 1 3 2 1 4 0 4 6 2 3 3 2 2 2 5 1 5 2 2 3 3 3 7 6 2 1 1 5 5 5 5 1 1 4 5 1 5 6 4 4 1 3 3 2 3 4 5 7 2 8 8 9 10 9 7 5 4 2
15 12 9 4 5 2 4 6 7 10 9 5 5 3 2 6 7 4 10 5 2 1 3 1 3 3 6 6 3 6 2 2 6 2 2 2 2 2 5 6 3 3 1 1 5 6 1 3 6 5 3 2 6 8 9 5 7 8 3 9 8 8 4 4 3 5 6 6 2 4 1 5 2 2 3 2 4 4 4 8 6 5 5 4 3 3 2 2
12 8 6 3 2 2 7 6 9 9 8 9 6 8 9 11 2 6 5 4 1 1 1 1 5 3 2 0 0 3 2 2 2 4 2 5 5 3 5 5 5 4 1 4 3 2 6 5 4 2 1 5 8 1 5 5 4 1 3 5 5 7 5 5 6 3 2 3 4 2 4 2 2 1 1 2 3 5 4 5 6 6 4 4 4 4 4 2
10 4 4 3 4 4 5 6 7 7 9 9 8 6 14 6 5 3 2 4 2 4 3 3 2 3 2 1 1 4 1 1 2 3 1 3 2 4 3 3 6 10 6 6 3 3 2 3 1 3 3 3 1 2 1 3 4 2 4 4 5 2 4 1 3 0 1 2 9 2 3 1 0 2 1 1 4 2 2 3 5 5 5 4 5 4 3 3
6 5 4 3 2 5 6 6 6 6 6 8 6 11 3 1 3 3 2 3 3 8 4 8 5 6 5 5 4 4 3 4 1 4 4 1 4 6 3 4 4 6 10 7 3 3 6 5 1 3 2 0 0 1 2 3 3 7 2 7 2 2 3 3 4 3 1 5 7 1 6 3 1 8 2 0 2 3 2 4 4 4 4 6 5 4 4 4
7 3 1 2 3 7 6 6 7 6 5 7 12 7 1 2 2 2 1 3 2 1 4 7 2 7 3 5 4 5 3 7 4 3 3 4 3 3 5 2 2 7 10 1 4 3 4 3 3 1 2 3 2 1 2 1 1 3 2 2 2 3 1 2 4 3 2 4 4 5 3 4 8 6 3 6 8 10 7 5 5 6 7 6 4 4 4 3
3 4 2 2 5 8 7 7 6 7 6 8 9 9 2 3 0 2 4 4 1 3 5 4 4 3 4 5 3 1 7 6 5 6 4 3 3 3 5 4 2 3 1 6 2 1 1 3 4 1 2 0 1 4 6 4 1 1 1 1 0 2 3 3 5 4 3 4 1 5 1 7 5 4 13 12 14 11 10 8 10 10 8 8 7 6 6 6
6 3 3 1 5 7 7 8 5 6 6 13 6 5 1 3 3 2 3 6 2 3 3 4 1 3 2 3 4 5 2 4 7 5 3 2 6 1 2 4 3 1 4 1 3 0 2 2 4 1 2 1 2 4 8 9 6 1 2 2 0 0 2 3 0 4 4 3 4 4 7 6 5 3 7 10 12 14 15 14 10 9 8 7 7 8 7 6
1 2 1 3 7 8 9 6 5 10 9 1 1 3 3 4 3 1 2 2 3 2 2 3 5 7 3 3 2 1 1 2 2 4 4 2 4 2 0 2 1 2 1 3 2 0 2 1 6 1 1 5 6 3 5 5 6 7 8 8 8 5 2 4 9 2 1 4 4 5 12 4 2 1 1 4 5 11 11 11 10 8 7 10 9 7 6 5
5 4 3 5 8 12 9 9 5 2 2 9 8 5 3 2 3 3 2 1 3 2 1 2 0 2 2 3 5 2 3 2 1 1 2 5 2 2 1 3 1 2 4 2 3 1 2 2 3 4 6 7 3 1 2 2 3 2 6 4 5 3 5 3 8 5 1 3 3 2 1 6 1 3 3 2 6 8 8 6 8 9 11 10 7 5 5 6
1 2 2 3 6 11 9 8 5 6 7 3 4 1 2 1 3 3 4 1 1 2 1 2 5 4 4 3 2 2 4 1 6 6 3 1 4 3 3 1 2 5 5 0 1 2 5 1 0 4 2 3 3 3 2 2 2 1 2 2 3 4 6 7 5 3 3 2 2 1 4 2 2 2 2 2 4 5 6 9 12 9 6 6 8 8 8 7
2 2 2 0 3 5 9 11 11 10 7 0 3 3 2 3 4 3 4 5 5 4 4 3 0 6 3 4 3 5 7 0 4 6 4 5 3 2 3 1 3 2 4 4 6 4 2 3 5 1 2 3 2 4 3 2 2 2 2 1 2 3 4 2 5 1 1 5 6 4 12 6 0 2 3 4 4 5 7 5 3 6 5 7 8 8 7 6
3 1 2 2 2 3 7 1 2 6 9 7 6 9 4 1 5 7 6 5 3 3 3 3 6 5 4 4 6 4 7 12 1 7 6 3 4 1 4 3 4 6 2 3 3 3 5 3 7 7 10 10 9 7 5 6 8 1 0 0 1 5 6 4 2 3 5 3 6 5 10 1 1 3 1 1 3 4 3 4 3 4 5 7 7 6 7 6
0 2 0 3 0 4 2 1 3 1 5 5 4 4 4 5 0 4 8 5 6 3 4 2 1 5 3 4 4 6 7 5 9 2 6 4 1 1 2 3 2 3 3 5 1 3 3 1 3 7 10 12 8 2 3 2 1 3 2 3 4 2 2 3 4 2 7 3 4 7 6 1 3 3 4 4 4 5 6 4 7 7 7 6 5 6 7 8
2 3 3 4 2 4 6 2 3 1 2 3 3 3 9 9 3 1 8 4 5 7 3 4 3 5 5 6 7 8 8 6 4 3 4 5 1 1 2 3 3 5 2 3 2 5 2 1 5 5 6 4 3 4 4 3 5 3 2 5 6 5 4 6 7 6 4 3 12 10 5 4 11 10 7 6 6 6 5 5 6 6 6 8 8 6 6 5
3 3 3 4 4 5 6 9 9 7 3 1 4 2 2 7 8 7 1 4 1 6 7 1 3 10 9 12 6 5 7 8 7 8 3 1 4 0 2 3 2 3 3 1 1 4 5 6 1 3 4 2 2 4 2 1 2 3 6 7 10 6 7 6 5 10 7 9 13 8 4 6 7 9 3 9 10 9 8 9 9 8 4 3 4 7 9 8
2 1 1 1 2 4 11 8 10 11 12 7 2 4 8 8 9 9 4 1 2 3 11 8 10 11 7 8 10 8 8 6 8 3 5 5 7 5 2 2 1 2 1 1 2 1 4 3 4 2 3 2 2 3 3 4 2 3 8 11 10 7 5 6 11 8 10 9 10 10 9 13 10 8 5 8 7 7 7 5 0 2 5 7 7 8 9 8
4 3 3 1 0 0 3 4 4 9 12 12 7 10 10 11 11 7 2 6 4 6 4 11 10 7 8 7 10 10 10 10 8 9 4 7 2 1 4 4 4 1 1 3 2 2 3 4 6 0 1 4 3 1 2 2 3 6 8 8 6 1 3 10 7 5 5 6 12 12 11 14 13 7 5 5 1 1 1 4 7 6 5 7 8 7 8 8
1 1 1 5 7 4 2 4 7 10 9 8 12 13 8 10 15 11 5 1 9 6 6 16 13 5 6 9 10 12 6 7 8 10 12 14 13 7 8 5 7 5 3 2 0 2 2 4 3 2 3 3 1 2 3 2 3 4 9 15 5 4 9 10 8 7 6 11 8 2 5 12 14 7 2 2 3 5 7 7 5 5 5 6 8 8 8 8
2 1 2 1 3 4 8 4 5 4 11 12 13 15 11 17 9 6 5 2 1 2 4 10 10 10 4 8 14 12 5 4 5 6 6 7 6 6 3 4 9 10 6 7 0 4 3 5 4 2 2 4 2 1 1 2 5 10 18 16 10 13 12 8 6 5 11 7 5 8 13 12 9 6 6 6 6 8 5 5 5 4 6 8 9 9 8 7
Wind_Direction
24 20 17 21 19 12 8 8 8 8 5 4 359 357 358 357 354 350 347 345 341 339 334 334 334 334 334 333 332 332 342 64 355 52 336 239 232 234 178 99 155 147 147 95 73 97 17 16 0 350 17 57 301 53 276 28 38 55 79 112 288 200 144 214 169 161 216 271 288 332 264 193 309 334 289 358 352 2 294 300 270 299 257 221 249 73 123 155
21 15 11 6 5 5 3 358 2 4 2 356 355 350 350 356 352 345 343 339 338 335 333 331 330 330 330 329 329 334 342 80 305 274 240 287 336 194 178 149 149 143 134 88 137 127 118 240 252 57 70 38 307 94 12 258 74 103 125 92 225 190 239 159 190 195 89 269 255 269 291 185 256 117 294 15 290 326 320 287 295 292 274 277 297 304 137 136
16 10 6 1 357 354 358 353 353 356 359 350 351 348 347 351 346 341 337 336 333 333 331 326 328 326 327 327 325 336 339 344 359 330 314 17 19 45 191 149 149 157 147 157 193 147 149 181 177 106 16 75 357 188 41 271 112 221 117 227 250 213 244 224 228 249 188 231 283 302 257 219 273 248 226 287 283 320 281 284 310 290 286 292 242 300 180 173
15 4 359 354 350 352 350 350 346 345 345 352 342 346 341 341 340 338 335 333 332 329 328 328 324 327 328 326 329 327 20 37 342 252 321 350 41 33 107 148 151 158 76 72 154 143 118 76 106 117 79 77 303 37 108 253 94 266 83 184 229 218 188 275 237 244 246 164 270 240 298 333 297 233 19 306 341 285 263 246 233 272 286 295 296 234 196 182
7 358 346 345 345 341 343 343 338 335 338 339 337 333 336 335 334 333 332 331 330 327 327 325 327 326 330 327 329 336 36 54 225 236 283 332 27 42 84 122 136 122 80 141 109 58 95 124 99 45 83 232 359 22 249 248 180 121 207 203 201 113 238 263 269 267 323 261 301 294 331 277 296 325 260 257 274 278 255 261 226 249 267 281 296 308 179 198
338 342 335 334 327 327 332 333 328 331 331 323 328 331 330 332 331 330 331 329 327 325 324 326 324 328 329 325 353 17 72 11 241 260 330 301 60 60 94 106 111 102 0 30 110 35 112 15 82 84 24 77 213 155 271 135 163 228 305 262 232 224 238 267 319 316 12 316 312 314 261 329 23 287 258 242 238 257 248 229 262 264 268 273 301 302 302 276
321 317 323 321 314 316 325 326 326 321 319 326 327 329 329 331 330 331 328 329 324 323 321 321 324 327 331 327 226 76 156 256 339 257 25 66 88 86 93 95 92 87 99 114 21 100 83 81 95 191 98 30 283 197 262 171 233 193 249 264 293 218 230 265 298 300 283 218 263 217 6 311 313 311 338 277 268 256 271 249 255 271 285 307 312 309 314 319
318 293 318 318 318 319 320 320 319 323 324 323 325 327 330 330 330 327 327 323 321 316 317 316 320 322 351 16 21 354 25 249 250 298 266 94 82 99 100 64 94 94 111 170 143 118 119 126 174 146 101 158 222 155 284 7 66 191 250 297 269 320 236 252 256 276 279 271 249 292 291 270 231 252 6 279 275 284 279 15 253 273 301 318 356 2 20 28
294 237 300 308 309 319 316 314 321 319 320 324 326 328 328 325 324 323 319 318 315 312 310 316 313 322 329 56 120 20 263 238 233 232 107 100 104 78 95 126 105 128 144 99 104 164 145 249 149 185 246 207 205 311 341 48 319 184 217 310 290 273 288 278 293 268 256 273 238 330 278 274 266 226 255 254 270 268 326 326 306 312 341 354 34 43 45 41
224 283 309 294 299 308 311 311 312 314 320 323 327 326 324 326 321 319 315 313 308 307 301 305 315 325 31 98 51 202 260 315 30 131 107 117 107 79 45 139 122 115 109 17 102 93 127 209 155 183 131 111 117 205 215 127 227 200 245 240 268 282 315 288 254 283 280 252 232 240 277 279 331 124 291 284 252 290 339 310 312 21 13 33 65 54 40 44
184 271 288 284 294 304 305 308 303 309 318 324 324 324 325 324 322 318 316 310 307 296 297 289 283 7 130 142 136 222 240 67 73 131 123 118 112 95 160 167 158 109 113 65 109 198 197 172 181 116 69 211 94 288 42 227 146 192 239 311 305 324 287 261 264 268 301 298 185 188 244 272 284 117 233 257 273 339 323 313 359 31 36 70 66 58 40 45
233 268 281 285 288 302 305 307 305 307 315 323 324 324 325 324 322 319 315 310 299 299 288 309 278 116 293 107 190 217 342 244 95 142 134 115 107 167 207 192 160 154 157 146 192 234 195 165 130 114 220 173 332 299 344 200 106 281 40 329 291 354 333 287 278 275 148 264 169 161 6 328 93 209 236 244 297 324 323 309 33 46 60 72 65 56 47 37
248 253 269 276 287 290 290 296 303 304 310 318 322 324 326 325 322 319 314 316 302 293 298 299 110 75 117 272 232 242 320 330 125 109 75 78 96 46 97 128 143 147 153 132 170 215 202 148 115 91 189 114 173 191 206 110 272 329 43 166 319 353 324 286 217 85 140 250 142 157 273 269 262 234 256 275 302 321 326 319 38 44 70 65 60 58 51 35
222 247 256 271 274 273 281 288 289 301 309 316 319 321 322 321 319 318 319 304 306 300 16 122 87 88 102 243 258 254 298 328 108 94 147 164 105 335 17 19 60 60 46 108 178 179 132 121 112 125 132 124 248 281 31 329 15 240 251 61 259 354 269 284 5 274 334 155 175 111 174 268 269 281 273 274 246 310 300 348 41 59 66 63 55 55 51 42
230 226 240 253 258 267 260 263 287 301 310 314 316 317 317 314 312 309 314 333 29 162 163 85 69 94 118 265 264 297 267 106 133 222 222 137 132 36 20 23 43 25 59 122 145 193 133 96 72 55 223 297 46 54 349 1 349 354 42 301 330 161 276 304 304 192 197 305 83 113 298 238 263 284 287 284 354 35 309 25 51 65 66 59 56 54 51 46
222 233 237 232 233 245 252 259 282 303 313 315 317 317 314 307 304 284 328 300 259 154 47 41 357 97 101 289 229 329 50 143 218 234 293 139 132 146 157 109 33 15 33 358 37 37 39 85 79 192 152 16 66 91 32 24 335 343 167 265 280 178 259 347 293 81 214 145 10 150 223 328 306 259 284 292 355 14 13 39 67 70 63 59 54 51 48 39
221 234 234 235 243 244 262 283 296 309 309 311 323 320 310 281 249 256 330 37 55 73 81 124 236 41 204 263 35 282 226 235 279 42 26 40 129 151 100 57 34 64 47 39 19 55 348 64 302 37 28 129 148 100 73 4 313 300 342 210 210 190 234 239 301 352 37 82 206 318 208 241 264 291 293 301 343 359 24 76 83 78 71 66 63 55 47 42
219 228 231 237 252 269 275 288 301 307 307 327 329 321 329 88 107 35 32 36 11 109 220 188 154 350 283 55 224 230 89 117 63 189 78 305 114 89 98 99 42 84 51 39 356 85 319 66 34 191 16 24 121 98 148 232 203 234 240 239 292 260 218 245 288 268 9 8 328 310 285 278 276 285 292 292 358 352 58 93 97 85 75 62 59 57 50 47
223 232 244 247 257 266 275 284 295 299 318 329 330 325 39 83 53 80 48 342 81 358 16 230 128 162 215 238 234 36 84 216 121 81 172 107 23 100 69 97 84 110 74 72 270 91 356 60 22 44 225 159 209 183 188 220 191 224 226 223 191 262 276 238 247 275 53 305 300 292 276 293 298 293 287 333 337 21 80 90 81 75 71 65 62 54 49 46
226 230 241 248 250 257 270 277 284 304 325 330 358 354 26 15 6 339 352 24 233 194 178 205 207 297 332 285 168 231 288 40 127 327 147 310 108 70 35 82 29 63 109 182 226 247 107 120 174 206 213 214 214 199 205 223 193 224 99 148 251 240 274 290 285 261 40 334 249 259 263 239 270 276 294 325 19 65 88 85 80 72 69 62 59 58 54 49
226 226 235 243 249 256 256 267 278 300 303 314 324 44 240 182 89 284 280 245 232 258 250 241 201 205 230 129 126 145 132 267 56 39 201 125 108 110 223 60 32 126 292 174 139 295 63 136 234 221 215 210 221 213 224 287 247 224 257 276 278 234 258 245 242 309 292 163 287 266 311 290 274 284 344 344 56 52 83 94 86 86 74 65 60 59 52 47
222 225 231 240 243 247 255 262 281 284 293 282 168 203 217 200 184 200 115 306 317 241 230 247 69 272 332 165 205 168 85 91 220 329 293 138 156 145 268 111 153 193 193 103 41 83 143 194 232 227 226 240 355 136 170 186 220 155 198 224 269 266 247 274 271 281 272 135 255 251 324 279 277 339 23 42 61 64 47 74 85 88 78 65 52 52 45 45
221 229 230 232 237 240 257 270 282 290 20 125 221 148 208 223 324 293 95 139 265 256 208 225 214 237 259 319 263 140 194 201 212 210 200 132 75 215 148 135 179 156 138 166 160 145 209 279 248 244 193 231 282 183 151 120 114 190 208 147 232 231 158 296 273 328 328 116 280 326 306 279 280 89 57 21 63 73 65 71 67 61 76 64 50 40 45 44
220 225 220 222 228 243 256 270 266 308 208 189 168 193 265 130 133 96 78 227 285 297 206 218 182 179 214 177 219 151 186 245 132 226 252 131 158 183 131 174 175 143 197 193 181 176 202 222 238 227 170 182 236 268 159 161 255 257 204 216 232 207 226 182 252 299 301 341 58 12 314 310 267 222 83 92 74 80 72 76 69 61 65 75 74 60 40 46
216 218 212 212 222 220 237 263 302 226 160 110 239 243 228 176 112 156 102 327 357 284 224 22 144 272 205 28 6 166 248 49 231 226 182 155 149 100 222 172 109 213 205 198 198 226 268 258 88 117 124 159 200 268 256 147 241 304 228 205 216 214 227 262 344 12 18 336 322 82 345 301 289 308 147 156 68 72 52 69 61 58 50 52 60 56 42 44
211 211 210 213 207 176 212 307 260 177 139 205 211 195 192 108 108 120 100 75 291 262 1 210 107 224 80 60 15 156 80 224 118 232 125 208 171 152 112 185 156 221 208 141 194 201 217 245 150 204 162 162 175 211 244 154 202 274 272 194 211 201 200 157 133 76 240 186 296 53 215 275 321 308 179 168 110 87 51 60 67 55 55 49 57 56 46 39
207 209 204 208 197 162 125 232 221 125 121 269 207 169 165 108 163 108 36 320 328 219 151 275 92 240 49 271 143 119 138 254 355 27 51 323 162 318 144 230 57 358 150 153 49 260 172 250 215 211 181 168 192 260 242 162 135 230 256 113 112 119 136 190 126 163 228 266 301 343 153 250 300 278 193 161 124 113 96 76 70 71 69 59 61 52 46 38
208 207 205 204 194 174 214 156 121 168 201 195 149 147 114 132 101 81 80 296 283 94 109 212 180 312 95 288 53 146 216 136 87 231 81 299 95 6 92 219 176 186 181 95 198 258 158 216 185 185 166 173 213 212 196 156 144 220 208 129 135 148 171 111 94 138 210 24 285 308 351 311 254 257 35 155 141 177 160 145 122 102 81 72 61 52 49 37
208 207 203 203 191 200 185 191 175 212 196 155 137 114 108 118 127 99 107 226 206 77 283 67 262 50 15 20 54 85 148 354 145 271 312 53 38 142 194 227 160 218 335 162 205 283 348 205 218 155 143 210 225 262 176 162 179 255 163 90 67 63 65 105 108 97 329 51 262 230 181 226 274 272 158 252 268 205 181 161 145 134 120 114 93 67 60 45
211 206 200 197 194 205 224 102 239 268 128 139 125 126 103 102 57 143 201 233 54 241 154 182 138 199 91 125 307 30 95 336 91 16 35 153 326 30 22 137 130 66 243 359 284 213 266 292 161 120 192 207 143 111 141 323 145 117 84 62 5 42 40 28 67 89 44 264 251 212 198 178 287 255 191 162 214 185 135 142 145 141 132 125 122 108 89 73
211 208 204 186 187 192 144 198 206 161 151 133 131 114 99 39 162 152 227 208 43 194 54 158 188 71 127 136 168 267 104 52 29 74 78 17 13 41 26 35 39 55 36 358 306 324 346 351 216 257 93 96 107 83 20 53 40 111 74 111 33 339 6 30 343 38 148 270 262 245 192 171 193 293 336 293 319 225 166 169 166 159 157 153 143 131 109 88
213 212 202 186 196 141 182 210 169 153 161 152 137 113 112 209 216 207 217 75 261 194 158 190 38 152 162 143 115 157 159 69 197 100 138 167 154 159 205 161 164 101 301 222 253 17 283 236 245 325 210 134 99 85 338 14 12 79 80 43 101 263 33 310 20 288 211 224 268 99 124 61 249 226 261 308 320 322 208 165 162 156 153 155 156 153 149 142
205 203 191 194 175 194 209 156 138 151 145 160 114 138 149 158 235 151 307 164 258 121 243 108 186 161 166 113 195 168 142 151 206 184 124 67 134 242 260 177 189 136 207 238 200 21 275 279 332 264 348 215 132 147 196 103 209 114 149 135 93 212 218 255 267 226 303 289 264 131 171 283 252 306 29 303 315 313 131 122 131 142 146 155 162 163 153 138
176 171 179 189 188 206 145 152 147 141 144 146 136 135 121 208 237 141 184 191 198 351 77 114 108 93 142 169 216 156 167 230 150 202 117 150 107 219 268 247 170 281 90 120 168 192 204 335 270 150 233 184 170 189 181 168 161 209 122 150 183 147 156 240 195 224 230 224 278 268 70 230 139 226 337 319 341 13 62 108 120 125 137 135 129 126 126 107
158 159 146 113 138 147 150 160 154 161 141 156 161 179 192 220 114 169 212 179 258 58 97 310 137 126 185 276 199 207 143 164 158 120 163 133 219 183 191 216 210 141 175 116 259 80 203 215 259 227 267 155 180 202 119 98 52 169 162 79 88 234 133 218 200 162 239 311 318 208 196 203 152 312 3 35 38 49 54 89 110 115 123 128 136 155 154 140
127 168 146 174 173 174 168 157 162 154 163 168 172 204 212 170 187 144 207 160 142 156 164 54 81 142 222 241 332 183 359 132 199 115 273 187 216 193 221 218 175 185 162 172 193 190 65 276 287 338 45 149 178 153 204 138 204 225 108 203 209 166 122 29 339 265 80 34 257 157 306 291 286 243 29 27 74 53 74 97 123 144 163 161 171 174 177 160
128 125 167 192 204 161 167 158 151 150 174 194 206 220 186 325 179 163 256 164 202 134 145 145 233 156 194 217 192 185 216 84 180 138 235 144 293 196 240 256 162 186 202 149 266 186 150 236 295 111 199 286 197 83 98 30 147 103 170 237 170 127 116 125 212 318 157 219 267 61 223 290 103 287 130 226 126 189 186 175 173 185 182 179 194 187 184 175
136 143 73 185 195 147 149 157 141 156 175 207 222 227 122 206 245 154 150 106 76 86 131 182 276 152 225 166 234 173 217 166 195 140 215 192 243 178 156 184 215 185 213 256 169 272 116 287 290 242 141 295 9 92 22 353 25 148 190 211 124 258 248 315 90 259 260 265 269 289 266 247 187 232 131 230 194 201 192 199 189 203 206 199 193 211 207 190
102 118 185 222 156 148 144 151 157 152 189 218 219 221 215 222 118 172 187 138 106 122 168 225 146 218 141 183 196 152 153 187 171 186 138 221 184 196 179 169 212 210 248 154 172 196 58 162 291 331 141 272 29 92 206 223 2 38 66 54 258 110 185 141 200 193 129 256 256 293 299 255 214 210 185 203 198 183 179 188 207 202 198 192 196 198 189 189
130 103 241 126 151 137 139 145 154 184 210 225 191 212 146 184 211 238 194 138 210 134 224 169 201 141 183 189 147 167 233 154 163 213 153 240 187 325 186 22 166 10 41 167 158 143 189 113 223 275 305 86 175 194 213 165 164 138 101 253 251 202 227 110 321 141 186 189 215 262 281 274 269 201 178 209 185 180 179 189 194 201 203 206 204 194 193 189
63 119 168 135 151 135 134 153 178 204 212 299 166 192 134 200 169 230 268 35 109 338 151 165 168 181 177 121 223 49 100 146 152 171 194 274 159 260 207 155 215 140 49 38 94 62 112 170 201 338 98 203 239 248 191 178 175 165 166 202 176 132 201 237 260 74 138 187 232 232 259 282 262 23 222 233 189 173 191 178 183 196 199 208 207 206 193 188
148 167 168 143 152 149 143 183 212 181 197 209 206 152 197 147 116 174 77 355 95 140 351 105 331 137 148 163 150 170 144 162 155 92 265 180 268 136 224 130 142 151 119 176 183 281 152 126 95 207 196 199 210 40 266 199 141 177 150 229 166 145 113 137 237 235 70 242 107 202 305 260 252 272 295 202 165 174 172 172 183 192 206 208 207 203 201 197
149 89 10 290 177 160 162 213 201 195 214 225 91 280 119 89 169 169 144 175 143 140 104 167 194 161 254 149 185 142 163 199 162 199 175 185 252 201 230 159 208 87 91 9 46 244 70 99 246 278 318 315 329 301 35 28 102 37 328 65 115 183 188 198 222 196 169 278 273 316 235 238 298 7 2 84 133 163 169 181 188 198 195 198 198 198 195 193
80 115 75 338 171 201 185 198 206 205 208 286 194 213 149 165 154 170 189 191 169 165 170 181 30 215 203 169 149 177 171 210 216 179 243 179 228 111 37 80 93 159 146 222 160 225 143 248 153 237 334 337 353 350 359 340 55 161 188 228 158 101 80 110 87 66 107 218 214 195 254 235 279 35 46 98 114 157 191 222 197 186 206 205 202 202 195 189
123 60 56 357 353 245 210 247 233 204 208 198 181 209 193 159 210 191 176 204 168 158 116 223 197 153 204 164 187 172 181 196 231 215 194 183 211 15 8 113 197 185 193 276 202 145 178 184 138 195 222 233 241 201 228 237 225 230 227 319 238 133 140 110 172 183 203 228 162 208 254 290 5 352 38 170 189 206 231 218 229 215 212 210 209 205 200 189
101 155 134 4 43 302 274 111 335 252 198 190 196 201 194 225 287 198 181 228 182 192 194 154 199 167 166 154 179 196 212 223 200 197 175 208 224 323 299 340 119 161 178 116 88 82 170 150 187 206 208 236 238 191 245 121 105 184 252 175 214 142 168 114 108 137 194 220 209 232 199 236 274 213 241 236 239 219 231 226 221 227 231 228 223 207 195 194
121 128 153 196 72 283 283 272 217 190 239 168 194 166 212 213 208 293 191 223 199 182 211 188 168 159 226 175 196 217 203 208 217 149 193 152 250 224 346 103 73 42 88 100 23 85 78 210 235 216 244 251 133 180 194 165 173 219 170 261 228 192 164 149 172 207 173 156 250 237 212 189 248 251 201 218 237 244 246 240 242 243 234 213 206 200 197 196
140 233 154 215 149 195 204 258 238 229 246 214 241 23 169 201 209 223 176 217 161 186 186 301 192 211 184 185 165 198 197 206 172 206 117 202 103 226 78 359 86 337 42 75 16 125 148 215 278 126 258 174 157 139 171 123 204 213 234 239 254 223 139 169 210 217 168 206 248 249 184 193 235 241 173 194 208 212 223 229 222 222 226 185 166 184 194 193
110 8 212 315 170 220 197 199 187 211 236 229 276 248 244 228 218 213 186 133 160 235 202 222 217 210 196 185 177 214 180 182 224 187 168 174 174 138 149 2 272 24 74 59 29 150 90 271 181 137 212 278 170 155 205 175 226 238 231 239 236 239 209 187 225 224 196 224 242 256 264 258 249 251 227 230 211 211 231 251 35 165 193 192 191 193 185 180
191 144 230 266 294 303 203 188 176 193 219 215 222 222 219 224 231 223 212 174 208 231 186 227 224 197 196 199 195 207 203 204 164 193 200 152 227 156 195 184 153 40 72 162 130 294 118 258 107 207 155 277 305 237 206 153 179 245 259 251 242 165 214 225 234 242 223 256 250 252 265 274 268 243 211 250 199 149 157 203 220 218 186 186 185 181 178 186
351 19 243 129 197 208 143 168 187 193 208 206 218 233 216 215 232 215 223 215 213 207 181 212 215 193 207 208 212 220 200 188 189 190 176 169 194 200 155 249 145 154 138 121 153 294 80 239 62 80 119 295 317 164 235 48 7 268 272 263 230 207 247 241 222 214 200 225 234 244 253 252 260 264 209 232 199 193 205 213 212 213 198 173 174 181 186 199
65 308 80 95 198 201 186 185 200 167 222 211 205 214 207 214 220 134 231 192 164 257 217 204 195 168 211 207 218 213 188 121 115 85 83 40 69 60 76 154 155 154 170 157 219 144 167 140 133 114 125 256 283 154 216 38 7 311 260 251 230 229 236 256 260 227 219 210 196 207 233 235 243 252 263 255 224 233 227 202 209 215 201 185 182 186 195 207